Weather in Bor

Russia / Kostroma Oblast     58°16′05″N   43°22′20″E
temp.,
°C
wind,
m/s
gust,
m/s
humid.,
%
clouds,
%
prec.,
mm/h
press.,
hPa
HPBL,
m
4 march, thu
thu400:00−4wsw4119592 0.1 998427
03:00−3wsw4119496 0.3 996653
06:00−3sw4109499 0.3 991543
09:00−1wsw5119799 0.9 988730
12:00−1wnw7118399 0.4 9881222
15:00−2nw6118694 0.6 9921071
18:00−6nw41088100 0.1 995792
21:00−10nw369583 0.1 998126
5 march, fri
fri500:00−13nw23960 0.0 100039
03:00−15w23970 0.0 100121
06:00−15w239735 0.0 100243
09:00−12w369559 0.0 1003242
12:00−7wnw369191 0.0 1004571
15:00−7wnw358795 0.1 1006878
18:00−10nw229599 0.1 100724
21:00−14n239496 0.3 101056
6 march, sat
sat600:00−19nw229562 0.0 101120
03:00−20nw239849 0.0 101333
06:00−22nw23986 0.0 101438
09:00−17nw35953 0.0 1014237
12:00−12wnw358757 0.0 1014649
15:00−10wnw358678 0.1 1013847
18:00−13wsw2395100 0.1 101247
21:00−16wsw239881 0.1 101125
7 march, sun
sun700:00−16ssw239875 0.0 100962
03:00−17s389976 0.1 1006194
06:00−14s51195100 0.0 1002387
09:00−11s61294100 0.5 998719
12:00−8s61193100 0.6 994877
15:00−6s61194100 1.5 992883
18:00−6sse41095100 0.6 990586
21:00−6wnw1297100 1.8 989147
8 march, mon
mon800:00−9nnw51194100 1.3 988487
03:00−10nw51293100 2.6 990588
06:00−12nw51193100 0.4 990512
09:00−12nw5994100 0.9 993450
12:00−9nnw5892100 0.5 996760
15:00−9nnw5889100 0.8 999990
18:00−11nnw4991100 0.1 1003683
21:00−13nnw3109396 0.2 1006497